This is the latest recevied weather packets stored in our database for station/object IR3AS. If no packets are shown the sender has not sent any weather packets the latest 10 day(s).
| Time | Temp. | Humidity | Pressure | Rain* | Wind** | Luminosity | Snow |
|---|---|---|---|---|---|---|---|
| 1787922598 | 22.22° C | 45% | 868.5 hPa | 0 mm | - | - | - |
| 1787922412 | 21.67° C | 46% | 869.7 hPa | 0 mm | - | - | - |
| 1787922381 | 21.67° C | 46% | 869.7 hPa | 0 mm | - | - | - |
| 1787922297 | 21.67° C | 46% | 869.7 hPa | 0 mm | - | - | - |
| 1787921997 | 21.67° C | 45% | 868.3 hPa | 0 mm | - | - | - |
| 1787921732 | 21.67° C | 48% | 869.9 hPa | 0 mm | - | - | - |
| 1787921699 | 21.67° C | 48% | 869.9 hPa | 0 mm | - | - | - |
| 1787921398 | 21.11° C | 48% | 869.2 hPa | 0 mm | - | - | - |
| 1787921098 | 20.56° C | 47% | 868.5 hPa | 0 mm | - | - | - |
| 1787920833 | 20.56° C | 48% | 867.9 hPa | 0 mm | - | - | - |
| 1787920797 | 20.56° C | 48% | 867.9 hPa | 0 mm | - | - | - |
| 1787920498 | 20.56° C | 49% | 867.7 hPa | 0 mm | - | - | - |
| 1787920198 | 20.56° C | 48% | 867.5 hPa | 0 mm | - | - | - |
| 1787919898 | 20.56° C | 50% | 869.4 hPa | 0 mm | - | - | - |
| 1787919598 | 19.44° C | 51% | 869.4 hPa | 0 mm | - | - | - |
| 1787919298 | 19.44° C | 50% | 869.3 hPa | 0 mm | - | - | - |
| 1787919033 | 18.89° C | 52% | 868.9 hPa | 0 mm | - | - | - |
| 1787918998 | 18.89° C | 52% | 868.9 hPa | 0 mm | - | - | - |
| 1787918738 | 19.44° C | 53% | 869.6 hPa | 0 mm | - | - | - |
| 1787918698 | 19.44° C | 53% | 869.6 hPa | 0 mm | - | - | - |
| 1787918398 | 18.33° C | 54% | 870.3 hPa | 0 mm | - | - | - |
| 1787918098 | 18.33° C | 53% | 868.6 hPa | 0 mm | - | - | - |
| 1787917830 | 18.89° C | 52% | 867.2 hPa | 0 mm | - | - | - |
| 1787917798 | 18.89° C | 52% | 867.2 hPa | 0 mm | - | - | - |
| 1787917498 | 18.89° C | 51% | 867.1 hPa | 0 mm | - | - | - |
* Rain latest hour (hover to see other rain measurements)
** Current wind speed in m/s (hover to see current wind gust speed)